Flag for Canada Weather past 2 weeks in Niagara Falls, Ontario, Canada

Now
68 °F

Light rain. Cloudy.


Feels Like: 68 °F
Forecast: 55 / 71 °F
Wind: 17 mph from Southwest

Location: Niagara Falls International Airport

Current Time: Sep 21, 2014 at 10:28:04 AM

Latest Report: Sep 21, 2014 at 9:53 AM


Visibility: 7 mi

Pressure: 29.57 "Hg

Humidity: 90%

Dew point: 65 °F

Location of Niagara FallsLocation

Historic Weather in Niagara Falls — Graph

°F

Niagara Falls temperature yesterday

Maximum temperature yesterday: 76 °F (at 2:53 PM)
Minimum temperature yesterday: 57 °F (at 12:53 AM)
Average temperature yesterday: 68 °F

Past Weeks' High & Low Weather Summary

 TemperatureHumidityPressure
High78 °F (Sep 10, 1:53 PM)97% (Sep 19, 3:04 AM)30.37 "Hg (Sep 19, 3:04 AM)
Low38 °F (Sep 19, 3:04 AM)37% (Sep 7, 4:53 PM)29.55 "Hg (Sep 11, 3:53 AM)
Average59 °F75%30.09 "Hg
* Reported Sep 6 9:01 AM — Sep 21 8:56 AM, Niagara Falls, Weather by CustomWeather, © 2014

Note: Actual official high and low records may vary slightly from our data, if they occured in-between our weather recording intervals... More about our weather records

Advertising

Niagara Falls weather history for previous 24 hours

 ConditionsComfort  
Time TempWeatherWind HumidityBarometerVisibility
8:56 AM
Sep 21
67 °FCloudy.15 mph90%29.60 "Hg7 mi
7:53 AM66 °FLight rain. Fog.10 mph90%29.62 "Hg6 mi
7:00 AM67 °FLight rain. Fog.9 mph87%29.66 "Hg6 mi
4:53 AM69 °FPassing clouds.12 mph79%29.69 "Hg10 mi
3:53 AM69 °FOvercast.9 mph81%29.70 "Hg10 mi
2:53 AM70 °FPassing clouds.12 mph73%29.73 "Hg10 mi
1:53 AM72 °FPassing clouds.18 mph68%29.75 "Hg10 mi
12:53 AM72 °FPassing clouds.16 mph68%29.75 "Hg10 mi
11:53 PM
Sep 20
73 °FPassing clouds.22 mph64%29.76 "Hg10 mi
10:53 PM73 °FPartly cloudy.22 mph64%29.80 "Hg10 mi
9:53 PM72 °FPassing clouds.17 mph66%29.81 "Hg10 mi
8:53 PM72 °FPartly cloudy.20 mph66%29.81 "Hg10 mi
7:53 PM70 °FScattered clouds.10 mph71%29.82 "Hg10 mi
6:53 PM73 °FScattered clouds.12 mph62%29.83 "Hg10 mi
5:53 PM75 °FPartly sunny.17 mph58%29.85 "Hg10 mi
4:53 PM76 °FScattered clouds.23 mph54%29.87 "Hg10 mi
3:53 PM76 °FScattered clouds.23 mph54%29.88 "Hg10 mi
2:53 PM76 °FBroken clouds.31 mph56%29.88 "Hg10 mi
1:53 PM75 °FPartly sunny.24 mph58%29.91 "Hg10 mi
Weather by CustomWeather, © 2014

See weather overviewHow to use our weather pages